Location: Goettingen
(51.5300°N, 9.9433°E)
Time: 17:43:56
(UTC+02:00)

ISS - Pass Details

Date: 24 May 2020
Orbit: 417 x 420 km, 51.6° (Epoch: 26 May)

Event Time Altitude Azimuth Distance (km) Brightness Sun altitude
Rises 23:06:38 0° 280° (W) 2,367 0.7 -12.1°
Reaches altitude 10° 23:08:45 10° 279° (W) 1,503 -0.4 -12.2°
Maximum altitude 23:12:06 75° 195° (SSW) 439 -3.8 -12.5°
Enters shadow 23:14:42 16° 110° (ESE) 1,188 -1.9 -12.7°
